Вернуться в каталог

OPS 4682 DEB

АктивенPO
NORAD 38375·DEBRIS·🇺🇸 United States

Запущен Apr 3, 1965 с Vandenberg Space Force Base

Loading…

Ближайшие Пролёты (ближайшие 24 часа)

TLE

СвежийSource: Space-Track

Эпоха: Sep 12, 2026, 13:41 UTC

1 38375U 65027CC  26255.57055251 -.00000111  00000-0 -41992-3 0  9999
2 38375  90.2460   8.9684 0029491 340.4208  19.5776 12.94929796627435

Отслеживайте OPS 4682 DEB в реальном времени с AllMySat

Download on the App Store